When you browse on this site, cookies collect data to enhance your experience and personalize the content and advertising you see.
Visit our Privacy Policy to learn more. By continuing to use the site, you agree to this use of cookies and data.
  • en Suisse
  • Liste des pays
  • À 7 jours
  • Température de l'eau
  • Carte météo
  • Widgets météo
  • user-avatar
    Se connecter

    Météo par heure à Shajenn

    Ce jour, 15 Décembre, Dimanche

    Heure Température Précipitation Vent Pression Humidité
    00:00 -10°C° 0 mm 6 m/s 599 mmHg 75%
    01:00 -11°C° 0 mm 6 m/s 599 mmHg 76%
    02:00 -12°C° 0 mm 6 m/s 599 mmHg 77%
    03:00 -12°C° 0 mm 6 m/s 599 mmHg 76%
    04:00 -12°C° 0 mm 6 m/s 600 mmHg 74%
    05:00 -13°C° 0 mm 5 m/s 600 mmHg 78%
    06:00 -13°C° 0 mm 5 m/s 600 mmHg 77%
    07:00 -13°C° 0 mm 5 m/s 600 mmHg 75%
    08:00 -12°C° 0 mm 4 m/s 601 mmHg 74%
    09:00 -11°C° 0 mm 4 m/s 601 mmHg 69%
    10:00 -9°C° 0 mm 4 m/s 602 mmHg 63%
    11:00 -8°C° 0 mm 4 m/s 602 mmHg 58%
    12:00 -6°C° 0 mm 3 m/s 602 mmHg 59%
    13:00 -5°C° 0 mm 2 m/s 602 mmHg 61%
    14:00 -5°C° 0 mm 2 m/s 601 mmHg 62%
    15:00 -4°C° 0 mm 1 m/s 601 mmHg 66%
    16:00 -7°C° 0 mm 1 m/s 601 mmHg 71%
    17:00 -8°C° 0 mm 1 m/s 601 mmHg 75%
    18:00 -8°C° 0 mm 1 m/s 601 mmHg 75%
    19:00 -9°C° 0 mm 1 m/s 602 mmHg 75%
    20:00 -9°C° 0 mm 1 m/s 602 mmHg 75%
    21:00 -9°C° 0 mm 1 m/s 603 mmHg 74%
    22:00 -9°C° 0 mm 1 m/s 603 mmHg 74%
    23:00 -9°C° 0 mm 1 m/s 603 mmHg 74%

    Demain, 16 Décembre, Lundi

    Heure Température Précipitation Vent Pression Humidité
    00:00 -10°C° 0 mm 2 m/s 603 mmHg 72%
    01:00 -10°C° 0 mm 2 m/s 604 mmHg 70%
    02:00 -12°C° 0 mm 3 m/s 604 mmHg 68%
    03:00 -12°C° 0 mm 3 m/s 604 mmHg 67%
    04:00 -14°C° 0 mm 4 m/s 605 mmHg 65%
    05:00 -14°C° 0 mm 5 m/s 605 mmHg 64%
    06:00 -14°C° 0 mm 5 m/s 606 mmHg 63%
    07:00 -15°C° 0 mm 6 m/s 607 mmHg 62%
    08:00 -15°C° 0 mm 6 m/s 607 mmHg 61%
    09:00 -14°C° 0 mm 6 m/s 608 mmHg 60%
    10:00 -12°C° 0 mm 7 m/s 608 mmHg 59%
    11:00 -11°C° 0 mm 7 m/s 609 mmHg 58%
    12:00 -11°C° 0 mm 7 m/s 609 mmHg 58%
    13:00 -9°C° 0 mm 7 m/s 608 mmHg 57%
    14:00 -9°C° 0 mm 7 m/s 608 mmHg 56%
    15:00 -11°C° 0 mm 7 m/s 608 mmHg 59%
    16:00 -11°C° 0 mm 6 m/s 608 mmHg 61%
    17:00 -14°C° 0 mm 6 m/s 608 mmHg 64%
    18:00 -14°C° 0 mm 7 m/s 609 mmHg 62%
    19:00 -15°C° 0 mm 8 m/s 609 mmHg 61%
    20:00 -15°C° 0 mm 9 m/s 609 mmHg 60%
    21:00 -15°C° 0 mm 10 m/s 610 mmHg 58%
    22:00 -16°C° 0 mm 11 m/s 610 mmHg 57%
    23:00 -16°C° 0 mm 12 m/s 610 mmHg 56%

    Après-demain, 17 Décembre, Mardi

    Heure Température Précipitation Vent Pression Humidité
    00:00 -16°C° 0 mm 11 m/s 610 mmHg 55%
    01:00 -16°C° 0 mm 11 m/s 611 mmHg 54%
    02:00 -16°C° 0 mm 11 m/s 611 mmHg 53%
    03:00 -16°C° 0 mm 11 m/s 611 mmHg 52%
    04:00 -14°C° 0 mm 11 m/s 610 mmHg 50%
    05:00 -14°C° 0 mm 10 m/s 610 mmHg 49%
    06:00 -14°C° 0 mm 11 m/s 611 mmHg 48%
    07:00 -13°C° 0 mm 11 m/s 611 mmHg 47%
    08:00 -12°C° 0 mm 11 m/s 611 mmHg 45%
    09:00 -11°C° 0 mm 11 m/s 611 mmHg 46%
    10:00 -9°C° 0 mm 11 m/s 611 mmHg 46%
    11:00 -7°C° 0 mm 11 m/s 612 mmHg 47%
    12:00 -7°C° 0 mm 10 m/s 611 mmHg 48%
    13:00 -5°C° 0 mm 9 m/s 611 mmHg 49%
    14:00 -5°C° 0 mm 9 m/s 610 mmHg 51%
    15:00 -6°C° 0 mm 8 m/s 610 mmHg 51%
    16:00 -6°C° 0 mm 8 m/s 610 mmHg 52%
    17:00 -7°C° 0 mm 8 m/s 610 mmHg 53%
    18:00 -7°C° 0 mm 8 m/s 610 mmHg 51%
    19:00 -7°C° 0 mm 7 m/s 610 mmHg 49%
    20:00 -7°C° 0 mm 7 m/s 610 mmHg 47%
    21:00 -7°C° 0 mm 7 m/s 610 mmHg 46%
    22:00 -7°C° 0 mm 7 m/s 610 mmHg 45%
    23:00 -7°C° 0 mm 7 m/s 610 mmHg 44%

    18 Décembre, Mercredi

    Heure Température Précipitation Vent Pression Humidité
    00:00 -6°C° 0 mm 7 m/s 609 mmHg 43%
    01:00 -6°C° 0 mm 7 m/s 609 mmHg 41%
    02:00 -6°C° 0 mm 7 m/s 609 mmHg 39%
    03:00 -5°C° 0 mm 8 m/s 609 mmHg 37%
    04:00 -5°C° 0 mm 8 m/s 609 mmHg 35%
    05:00 -4°C° 0 mm 9 m/s 609 mmHg 32%
    06:00 -4°C° 0 mm 9 m/s 609 mmHg 31%
    07:00 -3°C° 0 mm 9 m/s 609 mmHg 30%
    08:00 -3°C° 0 mm 9 m/s 609 mmHg 29%
    09:00 -1°C° 0 mm 8 m/s 609 mmHg 32%
    10:00 0°C° 0 mm 8 m/s 608 mmHg 35%
    11:00 +2°C° 0 mm 7 m/s 608 mmHg 38%
    12:00 +2°C° 0 mm 6 m/s 608 mmHg 38%
    13:00 +3°C° 0 mm 6 m/s 607 mmHg 38%
    14:00 +3°C° 0 mm 6 m/s 606 mmHg 37%
    15:00 +2°C° 0 mm 5 m/s 606 mmHg 37%
    16:00 0°C° 0 mm 5 m/s 605 mmHg 36%
    17:00 -1°C° 0 mm 4 m/s 605 mmHg 36%
    18:00 -1°C° 0 mm 4 m/s 604 mmHg 35%
    19:00 0°C° 0 mm 3 m/s 604 mmHg 34%
    20:00 +1°C° 0 mm 2 m/s 604 mmHg 33%
    21:00 +1°C° 0 mm 2 m/s 603 mmHg 33%
    22:00 +1°C° 0 mm 2 m/s 603 mmHg 33%
    23:00 +2°C° 0 mm 1 m/s 603 mmHg 32%

    19 Décembre, Jeudi

    Heure Température Précipitation Vent Pression Humidité
    00:00 +1°C° 0 mm 2 m/s 603 mmHg 32%
    01:00 0°C° 0 mm 3 m/s 602 mmHg 32%
    02:00 -1°C° 0 mm 4 m/s 602 mmHg 32%
    03:00 -2°C° 0 mm 6 m/s 603 mmHg 32%
    04:00 -1°C° 0 mm 8 m/s 603 mmHg 32%
    05:00 -2°C° 0 mm 10 m/s 603 mmHg 31%
    06:00 -3°C° 0 mm 11 m/s 603 mmHg 34%
    07:00 -4°C° 0 mm 11 m/s 603 mmHg 36%
    08:00 -5°C° 0 mm 12 m/s 603 mmHg 39%
    09:00 -5°C° 0 mm 12 m/s 603 mmHg 39%
    10:00 -5°C° 0 mm 13 m/s 603 mmHg 39%
    11:00 -4°C° 0 mm 13 m/s 603 mmHg 40%
    12:00 -5°C° 0 mm 13 m/s 603 mmHg 40%
    13:00 -5°C° 0 mm 13 m/s 603 mmHg 41%
    14:00 -5°C° 0 mm 13 m/s 603 mmHg 42%
    15:00 -6°C° 0 mm 13 m/s 603 mmHg 43%
    16:00 -6°C° 0 mm 13 m/s 604 mmHg 44%
    17:00 -7°C° 0 mm 13 m/s 604 mmHg 46%
    18:00 -7°C° 0 mm 13 m/s 605 mmHg 45%
    19:00 -7°C° 0 mm 13 m/s 606 mmHg 44%
    20:00 -7°C° 0 mm 13 m/s 606 mmHg 42%
    21:00 -7°C° 0 mm 13 m/s 606 mmHg 44%
    22:00 -9°C° 0 mm 13 m/s 607 mmHg 45%
    23:00 -9°C° 0 mm 13 m/s 607 mmHg 46%

    20 Décembre, Vendredi

    Heure Température Précipitation Vent Pression Humidité
    00:00 -7°C° 0 mm 12 m/s 607 mmHg 45%
    01:00 -7°C° 0 mm 12 m/s 608 mmHg 43%
    02:00 -7°C° 0 mm 12 m/s 608 mmHg 42%
    03:00 -6°C° 0 mm 12 m/s 608 mmHg 41%
    04:00 -6°C° 0 mm 12 m/s 608 mmHg 41%
    05:00 -6°C° 0 mm 12 m/s 609 mmHg 41%
    06:00 -6°C° 0 mm 12 m/s 609 mmHg 43%
    07:00 -6°C° 0 mm 11 m/s 609 mmHg 44%
    08:00 -4°C° 0 mm 10 m/s 610 mmHg 45%
    09:00 -3°C° 0 mm 10 m/s 610 mmHg 44%
    10:00 -2°C° 0 mm 10 m/s 610 mmHg 43%
    11:00 0°C° 0 mm 10 m/s 610 mmHg 42%
    12:00 +1°C° 0 mm 10 m/s 610 mmHg 42%
    13:00 +1°C° 0 mm 10 m/s 610 mmHg 42%
    14:00 +2°C° 0 mm 10 m/s 610 mmHg 43%
    15:00 +1°C° 0 mm 10 m/s 610 mmHg 43%
    16:00 0°C° 0 mm 10 m/s 610 mmHg 44%
    17:00 -2°C° 0 mm 10 m/s 610 mmHg 45%
    18:00 -1°C° 0 mm 9 m/s 610 mmHg 44%
    19:00 -1°C° 0 mm 9 m/s 610 mmHg 42%
    20:00 -1°C° 0 mm 9 m/s 611 mmHg 41%
    21:00 -1°C° 0 mm 9 m/s 611 mmHg 40%
    22:00 -1°C° 0 mm 9 m/s 611 mmHg 38%
    23:00 -1°C° 0 mm 9 m/s 611 mmHg 36%
    Voir plus